When you browse on this site, cookies collect data to enhance your experience and personalize the content and advertising you see.
Visit our Privacy Policy to learn more. By continuing to use the site, you agree to this use of cookies and data.
EN

Hourly Weather Sarafovo

Today, 4 August, Tuesday

Time Temperature Precipitation Wind Pressure Humidity
00:00 +19°C° 0 mm 2 mps 756 mmHg 86%
01:00 +19°C° 0 mm 2 mps 756 mmHg 87%
02:00 +19°C° 0 mm 2 mps 756 mmHg 86%
03:00 +19°C° 0 mm 2 mps 756 mmHg 87%
04:00 +18°C° 0 mm 2 mps 755 mmHg 87%
05:00 +18°C° 0 mm 2 mps 755 mmHg 88%
06:00 +20°C° 0 mm 2 mps 755 mmHg 78%
07:00 +24°C° 0 mm 3 mps 755 mmHg 68%
08:00 +26°C° 0 mm 3 mps 756 mmHg 58%
09:00 +27°C° 0 mm 4 mps 756 mmHg 53%
10:00 +28°C° 0 mm 4 mps 756 mmHg 48%
11:00 +30°C° 0 mm 5 mps 756 mmHg 43%
12:00 +30°C° 0 mm 5 mps 755 mmHg 43%
13:00 +30°C° 0 mm 5 mps 755 mmHg 43%
14:00 +30°C° 0 mm 6 mps 755 mmHg 43%
15:00 +30°C° 0 mm 6 mps 755 mmHg 46%
16:00 +29°C° 0 mm 5 mps 754 mmHg 49%
17:00 +28°C° 0 mm 5 mps 754 mmHg 52%
18:00 +26°C° 0 mm 5 mps 754 mmHg 62%
19:00 +23°C° 0 mm 4 mps 755 mmHg 72%
20:00 +21°C° 0 mm 3 mps 755 mmHg 82%
21:00 +20°C° 0 mm 3 mps 755 mmHg 85%
22:00 +20°C° 0 mm 3 mps 755 mmHg 88%
23:00 +19°C° 0 mm 3 mps 755 mmHg 90%

Tomorrow, 5 August, Wednesday

Time Temperature Precipitation Wind Pressure Humidity
00:00 +19°C° 0 mm 2 mps 755 mmHg 90%
01:00 +19°C° 0 mm 2 mps 755 mmHg 90%
02:00 +20°C° 0 mm 1 mps 755 mmHg 90%
03:00 +18°C° 0 mm 2 mps 754 mmHg 90%
04:00 +18°C° 0 mm 2 mps 754 mmHg 91%
05:00 +18°C° 0 mm 2 mps 754 mmHg 91%
06:00 +20°C° 0 mm 3 mps 754 mmHg 81%
07:00 +23°C° 0 mm 4 mps 754 mmHg 72%
08:00 +26°C° 0 mm 5 mps 755 mmHg 63%
09:00 +27°C° 0 mm 5 mps 755 mmHg 57%
10:00 +29°C° 0 mm 6 mps 755 mmHg 50%
11:00 +30°C° 0 mm 6 mps 755 mmHg 44%
12:00 +32°C° 0 mm 6 mps 755 mmHg 43%
13:00 +32°C° 0 mm 7 mps 754 mmHg 42%
14:00 +32°C° 0 mm 7 mps 754 mmHg 42%
15:00 +32°C° 0 mm 7 mps 754 mmHg 44%
16:00 +30°C° 0 mm 7 mps 754 mmHg 47%
17:00 +29°C° 0 mm 8 mps 754 mmHg 50%
18:00 +28°C° 0 mm 7 mps 754 mmHg 58%
19:00 +26°C° 0 mm 6 mps 754 mmHg 67%
20:00 +23°C° 0 mm 5 mps 755 mmHg 76%
21:00 +22°C° 0 mm 5 mps 755 mmHg 78%
22:00 +21°C° 0 mm 4 mps 755 mmHg 81%
23:00 +21°C° 0 mm 4 mps 755 mmHg 84%

Day after tomorrow, 6 August, Thursday

Time Temperature Precipitation Wind Pressure Humidity
00:00 +20°C° 0 mm 4 mps 755 mmHg 85%
01:00 +20°C° 0 mm 4 mps 755 mmHg 87%
02:00 +20°C° 0 mm 4 mps 755 mmHg 88%
03:00 +20°C° 0 mm 4 mps 755 mmHg 88%
04:00 +20°C° 0 mm 4 mps 755 mmHg 88%
05:00 +19°C° 0 mm 4 mps 755 mmHg 87%
06:00 +22°C° 0 mm 5 mps 755 mmHg 78%
07:00 +24°C° 0 mm 6 mps 756 mmHg 70%
08:00 +27°C° 0 mm 7 mps 756 mmHg 61%
09:00 +28°C° 0 mm 7 mps 756 mmHg 55%
10:00 +30°C° 0 mm 7 mps 756 mmHg 50%
11:00 +32°C° 0 mm 8 mps 756 mmHg 44%
12:00 +32°C° 0 mm 8 mps 756 mmHg 43%
13:00 +32°C° 0 mm 8 mps 756 mmHg 42%
14:00 +33°C° 0 mm 9 mps 756 mmHg 41%
15:00 +32°C° 0 mm 9 mps 756 mmHg 44%
16:00 +31°C° 0 mm 9 mps 756 mmHg 48%
17:00 +29°C° 0 mm 9 mps 756 mmHg 51%
18:00 +28°C° 0 mm 8 mps 756 mmHg 60%
19:00 +26°C° 0 mm 7 mps 756 mmHg 70%
20:00 +24°C° 0 mm 6 mps 756 mmHg 79%
21:00 +23°C° 0 mm 6 mps 756 mmHg 81%
22:00 +23°C° 0 mm 6 mps 756 mmHg 83%
23:00 +23°C° 0 mm 5 mps 756 mmHg 86%

7 August, Friday

Time Temperature Precipitation Wind Pressure Humidity
00:00 +22°C° 0 mm 5 mps 756 mmHg 87%
01:00 +22°C° 0 mm 5 mps 756 mmHg 88%
02:00 +21°C° 0 mm 5 mps 755 mmHg 90%
03:00 +21°C° 0 mm 5 mps 755 mmHg 89%
04:00 +21°C° 0 mm 5 mps 755 mmHg 88%
05:00 +21°C° 0 mm 5 mps 755 mmHg 88%
06:00 +23°C° 0 mm 6 mps 755 mmHg 78%
07:00 +26°C° 0 mm 7 mps 755 mmHg 68%
08:00 +29°C° 0 mm 9 mps 756 mmHg 58%
09:00 +31°C° 0 mm 9 mps 755 mmHg 53%
10:00 +33°C° 0 mm 9 mps 755 mmHg 47%
11:00 +34°C° 0 mm 10 mps 755 mmHg 42%
12:00 +36°C° 0 mm 10 mps 755 mmHg 41%
13:00 +36°C° 0 mm 10 mps 755 mmHg 39%
14:00 +36°C° 0 mm 10 mps 755 mmHg 38%
15:00 +36°C° 0 mm 10 mps 754 mmHg 40%
16:00 +34°C° 0 mm 10 mps 754 mmHg 42%
17:00 +33°C° 0 mm 10 mps 754 mmHg 44%
18:00 +31°C° 0 mm 9 mps 754 mmHg 53%
19:00 +29°C° 0 mm 8 mps 754 mmHg 62%
20:00 +27°C° 0 mm 7 mps 755 mmHg 70%
21:00 +27°C° 0 mm 7 mps 755 mmHg 73%
22:00 +26°C° 0 mm 7 mps 755 mmHg 76%
23:00 +26°C° 0 mm 6 mps 755 mmHg 79%

8 August, Saturday

Time Temperature Precipitation Wind Pressure Humidity
00:00 +24°C° 0 mm 6 mps 755 mmHg 80%
01:00 +25°C° 0 mm 5 mps 754 mmHg 82%
02:00 +23°C° 0 mm 4 mps 754 mmHg 83%
03:00 +23°C° 0 mm 5 mps 754 mmHg 81%
04:00 +23°C° 0 mm 6 mps 754 mmHg 79%
05:00 +23°C° 0 mm 7 mps 754 mmHg 78%
06:00 +26°C° 0 mm 8 mps 754 mmHg 70%
07:00 +28°C° 0 mm 8 mps 754 mmHg 62%
08:00 +31°C° 0 mm 9 mps 754 mmHg 55%
09:00 +32°C° 0 mm 10 mps 754 mmHg 49%
10:00 +34°C° 0 mm 10 mps 754 mmHg 43%
11:00 +36°C° 0 mm 10 mps 754 mmHg 37%
12:00 +36°C° 0 mm 10 mps 754 mmHg 37%
13:00 +36°C° 0 mm 10 mps 753 mmHg 36%
14:00 +36°C° 0 mm 10 mps 753 mmHg 35%
15:00 +34°C° 0 mm 10 mps 753 mmHg 37%
16:00 +33°C° 0 mm 10 mps 753 mmHg 39%
17:00 +33°C° 0 mm 9 mps 753 mmHg 41%
18:00 +31°C° 0 mm 8 mps 753 mmHg 48%
19:00 +28°C° 0 mm 7 mps 753 mmHg 55%
20:00 +26°C° 0 mm 6 mps 753 mmHg 61%
21:00 +26°C° 0 mm 6 mps 753 mmHg 63%
22:00 +24°C° 0 mm 6 mps 753 mmHg 65%
23:00 +24°C° 0 mm 6 mps 754 mmHg 67%

9 August, Sunday

Time Temperature Precipitation Wind Pressure Humidity
00:00 +23°C° 0 mm 6 mps 753 mmHg 68%
01:00 +23°C° 0 mm 6 mps 753 mmHg 69%
02:00 +23°C° 0 mm 6 mps 753 mmHg 71%
03:00 +23°C° 0 mm 6 mps 753 mmHg 69%
04:00 +23°C° 0 mm 6 mps 753 mmHg 67%
05:00 +22°C° 0 mm 7 mps 753 mmHg 64%
06:00 +24°C° 0 mm 7 mps 753 mmHg 60%
07:00 +26°C° 0 mm 7 mps 753 mmHg 56%
08:00 +27°C° 0 mm 8 mps 753 mmHg 52%
09:00 +28°C° 0.1 mm 8 mps 753 mmHg 48%
10:00 +30°C° 0.1 mm 7 mps 753 mmHg 44%
11:00 +33°C° 0.1 mm 7 mps 754 mmHg 40%
12:00 +33°C° 0.1 mm 8 mps 753 mmHg 41%
13:00 +33°C° 0.1 mm 8 mps 753 mmHg 42%
14:00 +33°C° 0.1 mm 9 mps 753 mmHg 43%
15:00 +32°C° 0 mm 8 mps 753 mmHg 43%
16:00 +32°C° 0 mm 8 mps 753 mmHg 44%
17:00 +30°C° 0 mm 7 mps 753 mmHg 45%
18:00 +29°C° 0 mm 6 mps 754 mmHg 52%
19:00 +27°C° 0 mm 5 mps 754 mmHg 58%
20:00 +25°C° 0 mm 4 mps 754 mmHg 65%
21:00 +23°C° 0 mm 4 mps 754 mmHg 69%
22:00 +22°C° 0 mm 4 mps 755 mmHg 72%
23:00 +22°C° 0 mm 3 mps 755 mmHg 76%
Show more